#timestamp,LO_Frequency,Hit,StdDev 
1599332415.7,286046998.6,P
1599332435.5,286046998.7,Y
1599332455.4,286047000.9,P
1599332475.2,286046998.1,N
1599332495.1,286047000.7,N
1599332496.0,286047000.7,N
1599332515.8,286046998.2,N
1599332535.6,286047001.1,N
1599332555.5,286047001.0,N
1599332575.3,286046998.1,N
1599332595.1,286047002.3,N
1599332615.9,286047002.4,N
1599332635.7,286047000.1,N
1599332655.6,286047000.1,N
1599332675.4,286047000.6,N
1599332695.3,286046998.2,N
1599332715.1,286047001.2,N
1599332716.0,286047001.2,N
1599332735.8,286046998.1,N
1599332755.7,286046998.7,N
1599332775.5,286047001.1,N
1599332795.3,286047001.2,N
1599332815.2,286046998.2,N
1599332835.0,286047000.7,N
1599332835.9,286047000.7,N
1599332855.8,286046999.9,N
1599332875.6,286047002.2,N
1599332895.5,286047010.8,Y
1599332915.3,286047008.5,P
1599332935.1,286047010.1,N
1599332955.9,286047010.0,N
1599332975.7,286047008.2,N
1599332995.5,286047007.4,N
1599333015.4,286047007.2,N
1599333035.2,286047007.1,N
1599333055.1,286047007.5,N
1599333056.0,286047007.5,N
1599333075.8,286047005.5,N
1599333095.6,286047003.3,N
1599333115.5,286047003.1,N
1599333135.3,286047003.8,N
1599333155.2,286047003.0,N
1599333175.9,286047003.1,N
1599333195.7,286047003.2,N
1599333215.6,286047003.8,N
1599333235.4,286047004.4,N
1599333255.3,286047004.1,N
1599333275.1,286047001.4,N
1599333276.0,286047001.4,N
1599333295.8,286047001.4,N
1599333315.7,286047004.4,N
1599333335.5,286047002.1,N
1599333355.3,286047002.0,N
1599333375.2,286047011.9,Y
1599333395.0,286046998.6,P
1599333395.9,286046998.6,N
1599333415.8,286046999.3,N
1599333435.6,286046998.6,N
1599333455.4,286046998.8,N
1599333475.3,286046998.9,N
1599333495.1,286046997.1,N
1599333515.9,286046997.1,N
1599333535.7,286046996.8,N
1599333555.5,286046996.7,N
1599333575.4,286046997.2,N
1599333595.2,286046998.0,N
1599333615.0,286046998.0,N
1599333615.9,286046998.0,N
1599333635.8,286046997.6,N
1599333655.6,286046994.9,N
1599333675.5,286046996.8,N
1599333695.3,286046997.9,N
1599333715.1,286046997.1,N
1599333735.9,286046997.2,N
1599333755.7,286046997.7,N
1599333775.6,286046995.4,N
1599333795.4,286046995.8,N
1599333815.2,286046997.4,N
1599333835.1,286046994.9,N
1599333836.0,286046994.9,N
1599333855.8,286046996.9,N
1599333875.6,286046997.0,N
1599333895.5,286046998.4,N
1599333915.3,286046998.8,N
1599333935.2,286046997.0,N
1599333955.9,286046999.2,N
1599333975.7,286046998.4,N
1599333995.6,286046998.6,N
1599334015.4,286047000.8,N
1599334035.2,286047000.8,N
1599334055.1,286046998.8,N
1599334056.0,286046998.8,N
1599334075.8,286046998.3,N
1599334095.7,286047000.9,N
1599334115.5,286047000.5,N
1599334135.3,286047000.3,N
1599334155.2,286046998.3,N
1599334175.9,286046999.1,N
1599334195.7,286046998.4,N
1599334215.6,286046998.3,N
1599334235.4,286046998.3,N
1599334255.2,286046999.1,N
1599334275.1,286046998.4,N
1599334276.0,286046998.4,N
1599334295.8,286046998.5,N
1599334315.7,286046998.6,N
1599334335.5,286047000.8,N
1599334355.3,286046999.4,N
1599334375.2,286046999.4,N
1599334395.0,286046998.8,N
1599334395.9,286046998.8,N
1599334415.7,286046998.8,N
1599334435.6,286046999.2,N
1599334455.4,286046999.6,N
1599334475.3,286046998.6,N
1599334495.1,286046998.7,N
1599334496.0,286046998.7,N
1599334515.8,286046998.7,N
1599334535.7,286046998.3,N
1599334555.5,286046998.1,N
1599334575.3,286046998.9,N
1599334595.2,286046998.4,N
1599334615.0,286046998.8,N
1599334615.9,286046998.8,N
1599334635.8,286046998.4,N
1599334655.6,286046998.5,N
1599334675.4,286047001.2,N
1599334695.3,286046998.2,N
1599334715.1,286046999.0,N
1599334735.9,286046998.1,N
1599334755.7,286046999.1,N
1599334775.5,286046998.2,N
1599334795.4,286046998.7,N
1599334815.2,286046999.0,N
1599334835.0,286046999.4,N
1599334835.9,286046999.4,N
1599334855.8,286046999.0,N
1599334875.6,286046999.3,N
1599334895.5,286046999.4,N
1599334915.3,286046997.0,Y
1599334935.1,286047000.9,P
1599334955.9,286047000.8,N
1599334975.7,286047001.2,N
1599334995.5,286047000.8,N
1599335015.4,286047001.2,N
1599335035.2,286047000.7,N
1599335055.1,286047000.7,N
1599335056.0,286047000.7,N
1599335075.8,286046998.6,N
1599335095.6,286047000.6,N
1599335115.5,286046998.6,N
1599335135.3,286046998.4,N
1599335155.1,286047001.2,N
1599335175.9,286047001.2,N
1599335195.7,286047000.6,N
1599335215.6,286047000.0,N
1599335235.4,286046999.7,N
1599335255.2,286047002.0,N
1599335275.1,286047002.3,N
1599335276.0,286047002.3,N
1599335295.8,286047002.3,N
1599335315.6,286047000.2,N
1599335335.5,286047000.0,N
1599335355.3,286047000.3,N
1599335375.2,286047001.0,N
1599335395.9,286046998.2,N
1599335415.7,286047000.7,N
1599335435.6,286046998.3,N
1599335455.4,286047001.0,N
1599335475.3,286047000.5,N
1599335495.1,286046999.8,N
1599335496.0,286046999.8,N
1599335515.8,286046998.2,N
1599335535.7,286046998.1,N
1599335555.5,286046998.8,N
1599335575.3,286046999.3,N
1599335595.2,286046998.8,N
1599335615.0,286046999.0,N
1599335615.9,286046999.0,N
1599335635.8,286046999.0,N
1599335655.6,286046998.3,N
1599335675.4,286046998.4,N
1599335695.3,286046998.5,N
1599335715.1,286046999.0,N
1599335735.8,286046999.4,N
1599335755.7,286047001.2,N
1599335775.5,286046998.5,N
1599335795.4,286046999.9,N
1599335815.2,286046998.6,N
1599335835.0,286046998.9,N
1599335835.9,286046998.9,N
1599335855.8,286046998.5,N
1599335875.6,286047000.7,N
1599335895.4,286047000.9,N
1599335915.3,286047000.6,N
1599335935.1,286046998.2,N
1599335955.9,286046998.9,N
1599335975.7,286046998.9,N
1599335995.5,286046999.1,N
